Location: Baia Mare
(47.6567°N, 23.5850°E)
Time: 11:40:23
(UTC+02:00)

ISS - Pass Details

Date: 07 January 2019
Orbit: 404 x 407 km, 51.6° (Epoch: 16 January)

Event Time Altitude Azimuth Distance (km) Brightness Sun altitude
Exits shadow 05:34:00 24° 68° (ENE) 888 -1.6 -25.9°
Drops below altitude 10° 05:35:36 10° 83° (E) 1,471 0.0 -25.6°
Sets 05:37:45 0° 90° (E) 2,330 1.4 -25.3°
